Hourly Weather Gogolevka

Today, 17 May, Monday

Time Temperature Precipitation Wind Pressure Humidity
00:00 +21°C° 0 mm 2 mps 738 mmHg 50%
01:00 +22°C° 0 mm 1 mps 738 mmHg 51%
02:00 +21°C° 0 mm 1 mps 738 mmHg 53%
03:00 +20°C° 0 mm 1 mps 738 mmHg 55%
04:00 +19°C° 0 mm 1 mps 738 mmHg 55%
05:00 +21°C° 0 mm 1 mps 738 mmHg 52%
06:00 +22°C° 0 mm 1 mps 739 mmHg 49%
07:00 +24°C° 0 mm 2 mps 739 mmHg 47%
08:00 +25°C° 0 mm 2 mps 739 mmHg 43%
09:00 +27°C° 0 mm 3 mps 739 mmHg 38%
10:00 +29°C° 0 mm 3 mps 739 mmHg 34%
11:00 +30°C° 0 mm 3 mps 739 mmHg 31%
12:00 +31°C° 0 mm 3 mps 739 mmHg 28%
13:00 +31°C° 0 mm 3 mps 739 mmHg 25%
14:00 +33°C° 0 mm 3 mps 739 mmHg 24%
15:00 +33°C° 0 mm 3 mps 738 mmHg 23%
16:00 +33°C° 0 mm 3 mps 738 mmHg 23%
17:00 +30°C° 0 mm 3 mps 738 mmHg 28%
18:00 +29°C° 0 mm 3 mps 738 mmHg 33%
19:00 +27°C° 0 mm 2 mps 737 mmHg 39%
20:00 +26°C° 0 mm 2 mps 737 mmHg 39%
21:00 +24°C° 0 mm 1 mps 737 mmHg 38%
22:00 +23°C° 0 mm 1 mps 737 mmHg 38%
23:00 +22°C° 0 mm 1 mps 737 mmHg 41%

Tomorrow, 18 May, Tuesday

Time Temperature Precipitation Wind Pressure Humidity
00:00 +22°C° 0 mm 1 mps 737 mmHg 43%
01:00 +21°C° 0 mm 1 mps 737 mmHg 46%
02:00 +20°C° 0 mm 1 mps 737 mmHg 47%
03:00 +20°C° 0 mm 1 mps 737 mmHg 48%
04:00 +19°C° 0 mm 1 mps 737 mmHg 49%
05:00 +21°C° 0 mm 1 mps 737 mmHg 47%
06:00 +22°C° 0 mm 1 mps 737 mmHg 45%
07:00 +24°C° 0 mm 1 mps 737 mmHg 42%
08:00 +25°C° 0 mm 1 mps 737 mmHg 38%
09:00 +27°C° 0 mm 1 mps 737 mmHg 34%
10:00 +29°C° 0 mm 2 mps 737 mmHg 30%
11:00 +30°C° 0 mm 2 mps 737 mmHg 27%
12:00 +30°C° 0 mm 2 mps 737 mmHg 25%
13:00 +31°C° 0 mm 3 mps 736 mmHg 23%
14:00 +31°C° 0 mm 3 mps 736 mmHg 24%
15:00 +31°C° 0 mm 3 mps 736 mmHg 26%
16:00 +32°C° 0 mm 4 mps 736 mmHg 27%
17:00 +28°C° 0.1 mm 4 mps 736 mmHg 39%
18:00 +26°C° 0.1 mm 5 mps 736 mmHg 52%
19:00 +23°C° 0.1 mm 6 mps 736 mmHg 65%
20:00 +22°C° 0.4 mm 6 mps 736 mmHg 67%
21:00 +20°C° 0.4 mm 5 mps 736 mmHg 70%
22:00 +19°C° 0.4 mm 4 mps 736 mmHg 72%
23:00 +18°C° 0 mm 4 mps 736 mmHg 73%

Day after tomorrow, 19 May, Wednesday

Time Temperature Precipitation Wind Pressure Humidity
00:00 +18°C° 0 mm 4 mps 736 mmHg 74%
01:00 +17°C° 0 mm 4 mps 736 mmHg 74%
02:00 +15°C° 0 mm 4 mps 736 mmHg 77%
03:00 +14°C° 0 mm 4 mps 736 mmHg 79%
04:00 +13°C° 0 mm 3 mps 736 mmHg 81%
05:00 +14°C° 0 mm 4 mps 736 mmHg 78%
06:00 +15°C° 0 mm 5 mps 737 mmHg 75%
07:00 +16°C° 0 mm 5 mps 737 mmHg 72%
08:00 +19°C° 0 mm 5 mps 737 mmHg 66%
09:00 +20°C° 0 mm 5 mps 737 mmHg 60%
10:00 +21°C° 0 mm 6 mps 737 mmHg 54%
11:00 +22°C° 0 mm 6 mps 738 mmHg 49%
12:00 +23°C° 0 mm 6 mps 738 mmHg 44%
13:00 +24°C° 0 mm 6 mps 738 mmHg 39%
14:00 +24°C° 0 mm 6 mps 738 mmHg 38%
15:00 +24°C° 0 mm 6 mps 738 mmHg 36%
16:00 +25°C° 0 mm 5 mps 738 mmHg 34%
17:00 +23°C° 0 mm 5 mps 738 mmHg 39%
18:00 +22°C° 0 mm 4 mps 738 mmHg 45%
19:00 +21°C° 0 mm 4 mps 738 mmHg 51%
20:00 +19°C° 0 mm 4 mps 738 mmHg 53%
21:00 +18°C° 0 mm 3 mps 738 mmHg 56%
22:00 +16°C° 0 mm 3 mps 738 mmHg 58%
23:00 +14°C° 0 mm 3 mps 738 mmHg 59%

20 May, Thursday

Time Temperature Precipitation Wind Pressure Humidity
00:00 +14°C° 0 mm 3 mps 739 mmHg 60%
01:00 +13°C° 0 mm 3 mps 739 mmHg 60%
02:00 +12°C° 0 mm 3 mps 739 mmHg 61%
03:00 +12°C° 0 mm 3 mps 739 mmHg 61%
04:00 +12°C° 0 mm 2 mps 739 mmHg 62%
05:00 +12°C° 0 mm 3 mps 739 mmHg 60%
06:00 +13°C° 0 mm 4 mps 739 mmHg 57%
07:00 +14°C° 0 mm 4 mps 740 mmHg 55%
08:00 +16°C° 0 mm 5 mps 740 mmHg 50%
09:00 +17°C° 0 mm 5 mps 740 mmHg 46%
10:00 +20°C° 0 mm 6 mps 740 mmHg 41%
11:00 +21°C° 0 mm 5 mps 740 mmHg 39%
12:00 +22°C° 0 mm 5 mps 739 mmHg 37%
13:00 +23°C° 0 mm 5 mps 739 mmHg 34%
14:00 +23°C° 0 mm 5 mps 739 mmHg 34%
15:00 +23°C° 0 mm 5 mps 739 mmHg 33%
16:00 +23°C° 0 mm 5 mps 738 mmHg 32%
17:00 +22°C° 0 mm 4 mps 738 mmHg 38%
18:00 +21°C° 0 mm 3 mps 738 mmHg 43%
19:00 +20°C° 0 mm 3 mps 738 mmHg 48%
20:00 +19°C° 0 mm 2 mps 738 mmHg 49%
21:00 +18°C° 0 mm 2 mps 738 mmHg 51%
22:00 +16°C° 0 mm 2 mps 738 mmHg 52%
23:00 +16°C° 0 mm 2 mps 738 mmHg 52%

21 May, Friday

Time Temperature Precipitation Wind Pressure Humidity
00:00 +15°C° 0 mm 2 mps 737 mmHg 52%
01:00 +15°C° 0 mm 2 mps 737 mmHg 52%
02:00 +15°C° 0 mm 2 mps 737 mmHg 53%
03:00 +14°C° 0 mm 2 mps 737 mmHg 53%
04:00 +14°C° 0 mm 2 mps 737 mmHg 53%
05:00 +14°C° 0 mm 3 mps 738 mmHg 53%
06:00 +16°C° 0 mm 3 mps 738 mmHg 52%
07:00 +17°C° 0 mm 4 mps 738 mmHg 52%
08:00 +18°C° 0 mm 4 mps 738 mmHg 48%
09:00 +20°C° 0 mm 5 mps 738 mmHg 44%
10:00 +22°C° 0 mm 6 mps 738 mmHg 40%
11:00 +23°C° 0 mm 6 mps 738 mmHg 38%
12:00 +23°C° 0 mm 5 mps 738 mmHg 36%
13:00 +25°C° 0 mm 5 mps 738 mmHg 34%
14:00 +25°C° 0 mm 5 mps 738 mmHg 34%
15:00 +25°C° 0 mm 5 mps 738 mmHg 35%
16:00 +25°C° 0 mm 4 mps 738 mmHg 36%
17:00 +24°C° 0 mm 3 mps 738 mmHg 41%
18:00 +22°C° 0 mm 3 mps 737 mmHg 46%
19:00 +23°C° 0 mm 2 mps 737 mmHg 52%
20:00 +21°C° 0 mm 1 mps 737 mmHg 53%
21:00 +20°C° 0 mm 1 mps 737 mmHg 54%
22:00 +19°C° 0 mm 1 mps 737 mmHg 55%
23:00 +16°C° 0 mm 0 mps 738 mmHg 57%

22 May, Saturday

Time Temperature Precipitation Wind Pressure Humidity
00:00 +16°C° 0 mm 0 mps 738 mmHg 58%
01:00 +15°C° 0 mm 0 mps 738 mmHg 60%
02:00 +15°C° 0 mm 0 mps 738 mmHg 60%
03:00 +14°C° 0 mm 0 mps 738 mmHg 61%
04:00 +14°C° 0 mm 0 mps 738 mmHg 62%
05:00 +15°C° 0 mm 0 mps 739 mmHg 59%
06:00 +19°C° 0 mm 1 mps 739 mmHg 56%
07:00 +20°C° 0 mm 1 mps 739 mmHg 53%
08:00 +22°C° 0 mm 1 mps 739 mmHg 48%
09:00 +24°C° 0 mm 2 mps 739 mmHg 44%
10:00 +25°C° 0 mm 2 mps 739 mmHg 39%
11:00 +26°C° 0 mm 2 mps 739 mmHg 37%
12:00 +27°C° 0 mm 2 mps 739 mmHg 35%
13:00 +28°C° 0 mm 2 mps 739 mmHg 34%
14:00 +28°C° 0 mm 3 mps 739 mmHg 33%
15:00 +28°C° 0 mm 3 mps 739 mmHg 33%
16:00 +28°C° 0 mm 3 mps 739 mmHg 33%
17:00 +27°C° 0 mm 3 mps 739 mmHg 38%
18:00 +26°C° 0 mm 2 mps 738 mmHg 43%
19:00 +25°C° 0 mm 2 mps 738 mmHg 48%
20:00 +24°C° 0 mm 2 mps 738 mmHg 49%
21:00 +21°C° 0 mm 2 mps 738 mmHg 50%
22:00 +20°C° 0 mm 2 mps 738 mmHg 50%
23:00 +20°C° 0 mm 2 mps 738 mmHg 52%
Show more